DEHRS EDXH-EDXW

Flight info

Callsign DEHRS
Flight time 0h 24m
Altitude 3000
Route 544454N0081900E/N0111F040 545018N0081900E/N0111F030
Aircraft C172/L-SFG/C

Departure

Time 2026-05-05 22:52
Airport Helgoland-Düne Airport (EDXH)

Arrival

Time 2026-05-05 23:17
Airport Westerland Sylt Airport (EDXW)
Time Latitude Longitude Altitude Speed Heading
2026-05-05 22:47 54.18668 7.91496 5 ft 0 kts 111°
2026-05-05 22:49 54.18667 7.91500 5 ft 4 kts 116°
2026-05-05 22:49 54.18670 7.91576 3 ft 10 kts 70°
2026-05-05 22:49 54.18622 7.91564 4 ft 11 kts 209°
2026-05-05 22:50 54.18528 7.91483 6 ft 18 kts 189°
2026-05-05 22:50 54.18426 7.91573 6 ft 16 kts 145°
2026-05-05 22:50 54.18342 7.91678 9 ft 13 kts 142°
2026-05-05 22:50 54.18316 7.91686 9 ft 4 kts 279°
2026-05-05 22:51 54.18321 7.91676 9 ft 0 kts 324°
2026-05-05 22:51 54.18479 7.91489 7 ft 55 kts 324°
2026-05-05 22:51 54.18802 7.90900 136 ft 80 kts 265°
2026-05-05 22:52 54.18324 7.90566 329 ft 90 kts 158°
2026-05-05 22:52 54.17898 7.91281 446 ft 86 kts 82°
2026-05-05 22:52 54.18237 7.92081 583 ft 92 kts 22°
2026-05-05 22:52 54.18919 7.92031 671 ft 103 kts
2026-05-05 22:53 54.19597 7.92363 809 ft 102 kts 20°
2026-05-05 22:53 54.20272 7.92760 944 ft 103 kts 22°
2026-05-05 22:53 54.20969 7.93217 985 ft 111 kts 23°
2026-05-05 22:53 54.21705 7.93719 990 ft 115 kts 24°
2026-05-05 22:54 54.22453 7.94238 994 ft 117 kts 23°
2026-05-05 22:54 54.23210 7.94769 989 ft 118 kts 24°
2026-05-05 22:54 54.23965 7.95300 988 ft 117 kts 22°
2026-05-05 22:54 54.24722 7.95835 986 ft 118 kts 21°
2026-05-05 22:55 54.25470 7.96364 981 ft 119 kts 21°
2026-05-05 22:55 54.26233 7.96902 982 ft 118 kts 22°
2026-05-05 22:55 54.26746 7.97264 983 ft 119 kts 22°
2026-05-05 22:55 54.27758 7.97980 988 ft 119 kts 22°
2026-05-05 22:56 54.28525 7.98521 991 ft 120 kts 22°
2026-05-05 22:56 54.29292 7.99063 988 ft 119 kts 22°
2026-05-05 22:56 54.30058 7.99605 986 ft 118 kts 22°
2026-05-05 22:56 54.30570 7.99967 984 ft 118 kts 23°
2026-05-05 22:57 54.31332 8.00505 990 ft 119 kts 22°
2026-05-05 22:57 54.32096 8.01049 990 ft 119 kts 22°
2026-05-05 22:57 54.32856 8.01587 989 ft 118 kts 22°
2026-05-05 22:57 54.33612 8.02123 992 ft 118 kts 21°
2026-05-05 22:58 54.34372 8.02662 990 ft 117 kts 22°
2026-05-05 22:58 54.35126 8.03197 987 ft 117 kts 22°
2026-05-05 22:58 54.35874 8.03727 984 ft 116 kts 21°
2026-05-05 22:58 54.36606 8.04246 987 ft 116 kts 22°
2026-05-05 22:59 54.37354 8.04779 989 ft 117 kts 21°
2026-05-05 22:59 54.38107 8.05314 985 ft 117 kts 22°
2026-05-05 22:59 54.38851 8.05842 984 ft 115 kts 22°
2026-05-05 22:59 54.39588 8.06366 986 ft 115 kts 22°
2026-05-05 23:00 54.41086 8.07432 984 ft 117 kts 22°
2026-05-05 23:00 54.41835 8.07966 987 ft 117 kts 22°
2026-05-05 23:00 54.42589 8.08502 988 ft 117 kts 22°
2026-05-05 23:01 54.43337 8.09035 987 ft 116 kts 22°
2026-05-05 23:01 54.44085 8.09568 989 ft 117 kts 22°
2026-05-05 23:01 54.44838 8.10104 987 ft 117 kts 22°
2026-05-05 23:01 54.45585 8.10637 987 ft 115 kts 22°
2026-05-05 23:02 54.46327 8.11166 987 ft 115 kts 22°
2026-05-05 23:02 54.47068 8.11696 986 ft 116 kts 22°
2026-05-05 23:02 54.47812 8.12227 986 ft 116 kts 23°
2026-05-05 23:02 54.48556 8.12759 982 ft 116 kts 22°
2026-05-05 23:03 54.49309 8.13297 987 ft 119 kts 22°
2026-05-05 23:03 54.50062 8.13834 986 ft 118 kts 22°
2026-05-05 23:03 54.50822 8.14378 988 ft 118 kts 22°
2026-05-05 23:03 54.51586 8.14924 989 ft 120 kts 22°
2026-05-05 23:04 54.52355 8.15475 985 ft 119 kts 22°
2026-05-05 23:04 54.53124 8.16027 989 ft 121 kts 22°
2026-05-05 23:04 54.53899 8.16581 986 ft 120 kts 21°
2026-05-05 23:04 54.54664 8.17130 988 ft 119 kts 22°
2026-05-05 23:05 54.55425 8.17675 987 ft 118 kts 21°
2026-05-05 23:05 54.56188 8.18222 987 ft 119 kts 22°
2026-05-05 23:05 54.56955 8.18773 984 ft 120 kts 22°
2026-05-05 23:05 54.57724 8.19324 981 ft 120 kts 22°
2026-05-05 23:06 54.58500 8.19882 985 ft 122 kts 22°
2026-05-05 23:06 54.59272 8.20437 982 ft 119 kts 22°
2026-05-05 23:06 54.60038 8.20987 980 ft 119 kts 22°
2026-05-05 23:06 54.60801 8.21536 976 ft 118 kts 21°
2026-05-05 23:07 54.61560 8.22082 980 ft 119 kts 22°
2026-05-05 23:07 54.62324 8.22632 977 ft 119 kts 23°
2026-05-05 23:07 54.63086 8.23179 982 ft 118 kts 22°
2026-05-05 23:07 54.63844 8.23726 976 ft 118 kts 22°
2026-05-05 23:08 54.64603 8.24273 979 ft 118 kts 22°
2026-05-05 23:08 54.65362 8.24820 977 ft 118 kts 23°
2026-05-05 23:08 54.66118 8.25366 985 ft 119 kts 22°
2026-05-05 23:08 54.66884 8.25914 980 ft 117 kts 22°
2026-05-05 23:09 54.67624 8.26450 980 ft 117 kts 22°
2026-05-05 23:09 54.68376 8.26995 982 ft 118 kts 22°
2026-05-05 23:09 54.69136 8.27544 982 ft 118 kts 22°
2026-05-05 23:09 54.69896 8.28093 986 ft 119 kts 22°
2026-05-05 23:10 54.70664 8.28649 981 ft 119 kts 22°
2026-05-05 23:10 54.71429 8.29201 984 ft 119 kts 22°
2026-05-05 23:10 54.72195 8.29756 985 ft 119 kts 21°
2026-05-05 23:10 54.72962 8.30310 980 ft 120 kts 22°
2026-05-05 23:11 54.73728 8.30865 978 ft 119 kts 22°
2026-05-05 23:11 54.74494 8.31419 980 ft 119 kts 22°
2026-05-05 23:11 54.75263 8.31976 981 ft 121 kts 21°
2026-05-05 23:11 54.76030 8.32532 976 ft 118 kts 22°
2026-05-05 23:12 54.76795 8.33088 977 ft 121 kts 22°
2026-05-05 23:12 54.77566 8.33647 974 ft 119 kts 22°
2026-05-05 23:12 54.78317 8.34192 976 ft 120 kts 22°
2026-05-05 23:12 54.79083 8.34748 975 ft 119 kts 22°
2026-05-05 23:13 54.79857 8.35310 981 ft 120 kts 21°
2026-05-05 23:13 54.80610 8.35858 980 ft 119 kts 22°
2026-05-05 23:13 54.81382 8.36419 980 ft 121 kts 22°
2026-05-05 23:13 54.82154 8.36980 977 ft 120 kts 23°
2026-05-05 23:14 54.82922 8.37539 981 ft 119 kts 22°
2026-05-05 23:14 54.83682 8.38085 980 ft 116 kts 21°
2026-05-05 23:14 54.84442 8.38510 1035 ft 115 kts 13°
2026-05-05 23:14 54.85253 8.38720 987 ft 120 kts
2026-05-05 23:15 54.86061 8.38730 1066 ft 114 kts 359°
2026-05-05 23:15 54.86864 8.38623 1041 ft 119 kts 354°
2026-05-05 23:15 54.87672 8.38268 897 ft 121 kts 340°
2026-05-05 23:15 54.88384 8.37637 687 ft 115 kts 330°
2026-05-05 23:16 54.89021 8.36882 575 ft 109 kts 327°
2026-05-05 23:16 54.89609 8.36168 415 ft 94 kts 325°
2026-05-05 23:16 54.90116 8.35539 225 ft 80 kts 324°
2026-05-05 23:16 54.90530 8.35027 100 ft 67 kts 325°
2026-05-05 23:17 54.90886 8.34587 44 ft 58 kts 325°
2026-05-05 23:17 54.91168 8.34238 40 ft 36 kts 324°
2026-05-05 23:17 54.91345 8.34021 35 ft 35 kts 325°
2026-05-05 23:17 54.91503 8.33828 36 ft 30 kts 324°
2026-05-05 23:18 54.91650 8.33633 39 ft 20 kts 312°
2026-05-05 23:18 54.91704 8.33472 40 ft 11 kts 296°
2026-05-05 23:18 54.91742 8.33314 38 ft 17 kts 290°
2026-05-05 23:18 54.91729 8.33177 35 ft 13 kts 178°
2026-05-05 23:19 54.91625 8.33177 33 ft 21 kts 180°
2026-05-05 23:19 54.91494 8.33177 28 ft 10 kts 182°
2026-05-05 23:19 54.91421 8.33238 27 ft 13 kts 169°
2026-05-05 23:19 54.91386 8.33139 25 ft 4 kts 269°
2026-05-05 23:20 54.91386 8.33138 25 ft 0 kts 268°